Torna al catalogo

CZ-2C DEB

AttivoSSO
NORAD 39627·DEBRIS·🇨🇳 China

Lanciato Mar 31, 2014 da Jiuquan Satellite Launch Center

Loading…

Prossimi Passaggi (prossime 24 ore)

TLE

AggiornatoSource: Space-Track

Epoca: Sep 14, 2026, 13:37 UTC

1 39627U 14014D   26257.56739270  .00001255  00000-0  39145-3 0  9996
2 39627  98.1366  17.4510 0150876  36.5657 324.5717 14.36135499647831

Traccia CZ-2C DEB in tempo reale con AllMySat

Download on the App Store